Location: Haliburton Scout Reserve
(45.0900°N, 78.3200°W)
Time: 03:07:21
(UTC-04:00)

PCSat - Pass Details

Date: 24 May 2022
Orbit: 784 x 795 km, 67.1° (Epoch: 24 June)

Event Time Altitude Azimuth Distance (km) Brightness Sun altitude
Rises 04:31:58 0° 318° (NW) 3,304 12.8 -9.7°
Reaches altitude 10° 04:34:45 10° 305° (NW) 2,369 11.9 -9.4°
Maximum altitude 04:39:07 25° 252° (WSW) 1,543 10.6 -8.8°
Drops below altitude 10° 04:43:28 10° 198° (SSW) 2,353 11.5 -8.2°
Sets 04:46:14 0° 185° (S) 3,275 12.3 -7.8°
